(309203) = 2006 SZ370 = 2007 GG

Discovered at Mauna Kea on 2007-04-07 by D. J. Tholen.

Orbit

Orbit type: Amor
Near-Earth Object

Note: WebGL enabled browser required.

epoch2023-09-13.0
epoch JD2460200.5
perihelion date2024-05-26.47870
perihelion JD2460456.97870
argument of perihelion (°)299.60816
ascending node (°)137.08231
inclination (°)5.29694
eccentricity0.5605734
perihelion distance (AU)1.1646827
Tisserand w.r.t. Jupiter3.1
ΔV w.r.t. Earth (km/sec)7.1
semimajor axis (AU)2.6504600
mean anomaly (°)301.41678
mean daily motion (°/day)0.22841360
aphelion distance (AU)4.136
period (years)4.32
P-vector [x]0.22768343
P-vector [y]0.92227122
P-vector [z]0.31237166
Q-vector [x]-0.97170390
Q-vector [y]0.19448968
Q-vector [z]0.13403469
absolute magnitude17.76
phase slope0.15
uncertainty0
referenceMPEC 2023-O02
observations used189
oppositions7
arc length (days)7518
first opposition used2002
last opposition used2023
residual rms (arc-secs)0.78
perturbers coarse indicatorM-v
perturbers precise indicator003Ek
first observation date used2002-12-14.0
last observation date used2023-07-15.0
computer nameMPCLINUX
JD of orbit computation2455900.435584
perihelion JD uncertainty (days)3.0928E-05
argument of perihelion uncertainty (°)2.2043E-05
ascending node uncertainty (°)2.1955E-05
inclination uncertainty (°)3.0578E-06
eccentricity uncertainty 2.4518E-08
perihelion distance uncertainty (AU)7.3085E-08
Minimum Orbit Intersection Distances (in AU)
for orbit epoch: 2460000.5, reference: E2023-O02
Mercury0.86138
Venus0.45048
Earth0.19856
Mars0.00199
Jupiter1.21005
Saturn5.95074
Uranus15.0096
Neptune26.41

Observations

194 total observations over interval: 2002 12 14.56292 – 2023 07 15.11709
These data are available for download (format description).

Date (UT) J2000 RA J2000 Dec Magn Location Ref
2002 12 14.56292 11 41 15.45 +00 52 22.2 19.2 R 608 – Haleakala-AMOS MPS 226908
2002 12 14.57343 11 41 16.65 +00 52 17.0 19.4 R 608 – Haleakala-AMOS MPS 226908
2002 12 14.58427 11 41 17.89 +00 52 13.2 19.4 R 608 – Haleakala-AMOS MPS 226908
2003 03 07.53823 12 00 14.47 +06 40 34.2 19.3 R 644 – Palomar Mountain/NEAT MPS 226908
2003 03 07.54867 12 00 13.75 +06 40 41.0 19.4 R 644 – Palomar Mountain/NEAT MPS 226908
2003 03 14.40056 11 52 05.27 +07 51 28.0 19.0 R 644 – Palomar Mountain/NEAT MPS 226908
2003 03 14.42191 11 52 03.72 +07 51 40.1 19.4 R 644 – Palomar Mountain/NEAT MPS 226908
2006 08 28.26942 22 26 00.27 -13 00 16.5 19.5 V 703 – Catalina Sky Survey MPS 208177
2006 08 28.27583 22 25 59.80 -13 00 20.2 19.6 V 703 – Catalina Sky Survey MPS 208177
2006 08 28.28224 22 25 59.16 -13 00 25.0 19.2 V 703 – Catalina Sky Survey MPS 208177
2006 08 28.28865 22 25 58.98 -13 00 28.8 19.6 V 703 – Catalina Sky Survey MPS 208177
2006 09 20.26690 21 59 22.88 -16 49 31.2 19.5 R 608 – Haleakala-AMOS MPS 224944
2006 09 20.28299 21 59 21.84 -16 49 39.3   608 – Haleakala-AMOS MPS 224944
2006 09 22.84663 21 56 47.80 -17 10 46.5 20 R 461 – University of Szeged, Piszkesteto Stn. (Konkol MPS 186534
2006 09 22.84773 21 56 47.75 -17 10 47.0 20.1 R 461 – University of Szeged, Piszkesteto Stn. (Konkol MPS 192321
2006 09 22.85102 21 56 47.50 -17 10 48.9   461 – University of Szeged, Piszkesteto Stn. (Konkol MPS 186534
2006 09 22.85431 21 56 47.30 -17 10 50.5 19.7 R 461 – University of Szeged, Piszkesteto Stn. (Konkol MPS 192321
2006 09 22.85650 21 56 47.18 -17 10 51.2   461 – University of Szeged, Piszkesteto Stn. (Konkol MPS 186534
2006 09 22.86090 21 56 46.94 -17 10 53.4 20.3 R 461 – University of Szeged, Piszkesteto Stn. (Konkol MPS 192321
2006 09 22.86200 21 56 46.85 -17 10 54.1   461 – University of Szeged, Piszkesteto Stn. (Konkol MPS 186534
2006 09 23.82815 21 55 51.79 -17 18 26.6 20 R 461 – University of Szeged, Piszkesteto Stn. (Konkol MPS 186534
2006 09 23.82926 21 55 51.76 -17 18 27.3 20 R 461 – University of Szeged, Piszkesteto Stn. (Konkol MPS 192321
2006 09 23.83257 21 55 51.56 -17 18 29.5   461 – University of Szeged, Piszkesteto Stn. (Konkol MPS 186534
2006 09 23.83588 21 55 51.39 -17 18 31.0   461 – University of Szeged, Piszkesteto Stn. (Konkol MPS 192321
2006 09 23.83809 21 55 51.25 -17 18 31.6   461 – University of Szeged, Piszkesteto Stn. (Konkol MPS 186534
2006 09 23.84250 21 55 50.98 -17 18 33.4   461 – University of Szeged, Piszkesteto Stn. (Konkol MPS 192321
2006 09 23.84361 21 55 50.91 -17 18 33.7   461 – University of Szeged, Piszkesteto Stn. (Konkol MPS 186534
2007 04 07.275352 05 32 34.494 +22 20 59.33 19.9 R 568 – Maunakea MPS 206300
2007 04 07.290105 05 32 38.101 +22 21 05.08 19.7 R 568 – Maunakea MPS 206300
2007 04 08.268593 05 36 38.431 +22 27 27.25 20.0 R 568 – Maunakea MPS 206300
2007 04 08.269497 05 36 38.652 +22 27 27.60 20.0 R 568 – Maunakea MPS 206300
2007 04 08.85593 05 39 02.34 +22 31 01.3   J95 – Great Shefford MPS 206300
2007 04 08.86851 05 39 05.53 +22 31 04.6 20.6 R J95 – Great Shefford MPS 206300
2007 04 09.22030 05 40 31.46 +22 33 17.8 20.8 V F85 – Tiki Observatory, Punaauia MPS 206300
2007 04 09.23760 05 40 35.63 +22 33 24.0 20.5 V F85 – Tiki Observatory, Punaauia MPS 206300
2007 04 09.25417 05 40 39.67 +22 33 29.2 20.2 V F85 – Tiki Observatory, Punaauia MPS 206300
2007 04 09.260942 05 40 41.342 +22 33 28.52 20.0 R 568 – Maunakea MPS 206300
2007 04 09.261847 05 40 41.559 +22 33 28.91 19.8 R 568 – Maunakea MPS 206300
2007 04 09.262755 05 40 41.787 +22 33 29.16 19.9 R 568 – Maunakea MPS 206300
2007 04 10.86347 05 47 11.86 +22 42 13.6   J95 – Great Shefford MPS 206300
2007 04 10.88037 05 47 15.96 +22 42 17.8 20.9 R J95 – Great Shefford MPS 206300
2007 04 14.13753 06 00 22.04 +22 56 45.7   291 – LPL/Spacewatch II MPS 207003
2007 04 14.14158 06 00 23.07 +22 56 46.5   291 – LPL/Spacewatch II MPS 207003
2007 04 14.14564 06 00 23.96 +22 56 46.4   291 – LPL/Spacewatch II MPS 207003
2007 04 14.79803 06 03 00.01 +22 59 06.3   246 – Klet Observatory-KLENOT MPS 207003
2007 04 14.79884 06 03 00.20 +22 59 06.1   246 – Klet Observatory-KLENOT MPS 207003
2007 04 14.80402 06 03 01.44 +22 59 07.9   246 – Klet Observatory-KLENOT MPS 207003
2007 04 14.80586 06 03 01.86 +22 59 07.3   246 – Klet Observatory-KLENOT MPS 207003
2007 04 19.260655 06 20 35.270 +23 10 26.70 20.4 R 568 – Maunakea MPS 208177
2007 04 19.261560 06 20 35.477 +23 10 26.79 20.5 R 568 – Maunakea MPS 208177
2007 04 19.262466 06 20 35.681 +23 10 26.90 20.4 R 568 – Maunakea MPS 208177
2007 06 15.266637 09 24 06.372 +17 23 37.16 21.1 R 568 – Maunakea MPS 211080
2008 01 08.644932 15 12 42.630 -13 11 26.20 23.6 R 568 – Maunakea MPS 244080
2008 01 09.644054 15 13 43.000 -13 14 11.87 23.7 R 568 – Maunakea MPS 244080
2008 05 22.389443 14 58 22.386 -09 22 36.72   568 – Maunakea MPS 251396
2008 05 22.393329 14 58 22.191 -09 22 36.20 23.0 R 568 – Maunakea MPS 251396
2008 05 22.397208 14 58 21.975 -09 22 35.69   568 – Maunakea MPS 251396
2010 05 16.581925 20 48 43.873 -15 15 31.04 22.8 R 568 – Maunakea MPS 348048
2010 05 16.586801 20 48 43.950 -15 15 30.65 22.7 R 568 – Maunakea MPS 348048
2010 05 16.592104 20 48 44.040 -15 15 30.31 23.0 R 568 – Maunakea MPS 348048
2010 05 16.599869 20 48 44.162 -15 15 29.66 22.9 R 568 – Maunakea MPS 348048
2010 07 14.505152 20 29 27.744 -16 44 17.03 21.9 R 568 – Maunakea MPS 346348
2010 07 14.507509 20 29 27.609 -16 44 17.64 22.0 R 568 – Maunakea MPS 346348
2015 07 24.60071 03 36 05.452 +14 56 54.49 20.9 w F51 – Pan-STARRS 1, Haleakala MPS 618396
2015 07 24.60532 03 36 06.438 +14 56 57.21 21.0 w F51 – Pan-STARRS 1, Haleakala MPS 618396
2015 07 24.60989 03 36 07.389 +14 57 00.13 21.0 w F51 – Pan-STARRS 1, Haleakala MPS 618396
2015 07 26.58437 03 43 10.880 +15 16 22.59 21.0 w F51 – Pan-STARRS 1, Haleakala MPS 618396
2015 07 26.58961 03 43 12.008 +15 16 25.52 21.2 w F51 – Pan-STARRS 1, Haleakala MPS 618396
2015 07 26.59488 03 43 13.146 +15 16 28.59 21.3 w F51 – Pan-STARRS 1, Haleakala MPS 618396
2015 07 26.60009 03 43 14.262 +15 16 31.71 20.8 w F51 – Pan-STARRS 1, Haleakala MPS 618396
2015 10 23.57415 09 37 56.277 +10 11 44.25 20.3 w F51 – Pan-STARRS 1, Haleakala MPS 641382
2015 10 23.57677 09 37 56.819 +10 11 42.20 20.1 w F51 – Pan-STARRS 1, Haleakala MPS 641382
2015 10 23.57936 09 37 57.346 +10 11 39.97 20.3 w F51 – Pan-STARRS 1, Haleakala MPS 641382
2015 10 23.58194 09 37 57.856 +10 11 37.95 20.3 w F51 – Pan-STARRS 1, Haleakala MPS 641382
2016 01 08.63167 12 32 51.429 -01 38 36.97 20.3 w F51 – Pan-STARRS 1, Haleakala MPS 667921
2016 01 08.64011 12 32 51.921 -01 38 37.55 20.4 w F51 – Pan-STARRS 1, Haleakala MPS 667921
2016 01 08.64857 12 32 52.409 -01 38 38.22 20.2 w F51 – Pan-STARRS 1, Haleakala MPS 667921
2016 02 03.57496 12 45 09.732 -00 33 24.78 20.1 w F51 – Pan-STARRS 1, Haleakala MPS 678558
2016 02 03.58682 12 45 09.621 -00 33 20.36 20.1 w F51 – Pan-STARRS 1, Haleakala MPS 678558
2016 02 03.59871 12 45 09.512 -00 33 15.88 20.1 w F51 – Pan-STARRS 1, Haleakala MPS 678558
2016 02 03.61086 12 45 09.401 -00 33 11.36 20.2 w F51 – Pan-STARRS 1, Haleakala MPS 678558
2016 02 16.40977 12 40 19.54 +01 07 40.3 19.5 V 703 – Catalina Sky Survey MPS 685864
2016 02 16.41479 12 40 19.25 +01 07 42.9 20.1 V 703 – Catalina Sky Survey MPS 685864
2016 02 16.41982 12 40 19.14 +01 07 46.2 20.0 V 703 – Catalina Sky Survey MPS 685864
2016 02 16.42483 12 40 18.88 +01 07 49.7 20.4 V 703 – Catalina Sky Survey MPS 685864
2016 02 20.28003 12 37 33.46 +01 45 12.7 19.8 V 807 – Cerro Tololo Observatory, La Serena MPS 686612
2016 02 20.28221 12 37 33.35 +01 45 14.1 19.9 V 807 – Cerro Tololo Observatory, La Serena MPS 686612
2016 02 20.28453 12 37 33.22 +01 45 15.6 20.2 V 807 – Cerro Tololo Observatory, La Serena MPS 686612
2016 02 20.28686 12 37 33.11 +01 45 16.8 20.4 V 807 – Cerro Tololo Observatory, La Serena MPS 686612
2016 02 21.27566 12 36 45.59 +01 55 13.1 20.1 V 807 – Cerro Tololo Observatory, La Serena MPS 686612
2016 02 21.27799 12 36 45.47 +01 55 14.5 20.0 V 807 – Cerro Tololo Observatory, La Serena MPS 686612
2016 02 21.28002 12 36 45.35 +01 55 15.8 19.8 V 807 – Cerro Tololo Observatory, La Serena MPS 686612
